[[{"header":{"parameterUnit":"m.s-1","parameterCategory":1,"la1":30.2991,"la2":30.254,"lo1":-89.0895,"lo2":-89.0444,"dx":0.0017,"dy":0.0017,"nx":28,"ny":28,"refTime":"2022-11-13T15:00:00:Z","depth":0,"parameterNumber":2,"parameterNumberName":"U-component_of_WINDS"},"data":[0,0,0,0,0,0,0,0,0,0,0,0,0,0,0,0,0,0,0,0,0,0,0,0,0,0,0,0,0,0,0,0,0,0,0,0,0,0,0,0,0,0,0,0,0,0,0,0,0,0,0,0,0,0,0,0,0,0,-8.1175,-8.1176,0,-8.126,-8.1261,-8.1262,-8.1191,-8.1188,-8.1185,-8.1183,-8.1264,-8.1269,-8.1274,0,0,0,0,0,0,0,0,0,0,0,0,0,-8.0947,-8.0951,-8.1175,-8.1176,-8.1177,-8.126,-8.1261,-8.1262,-8.1192,-8.1188,-8.1185,-8.1181,-8.1263,-8.1269,-8.1275,0,0,0,0,0,0,0,0,0,0,0,0,0,-8.104,-8.0953,-8.1175,-8.1152,-8.1151,-8.126,-8.1261,-8.1263,-8.1192,-8.1188,-8.1184,-8.1179,-8.1261,-8.1268,-8.1275,-8.1409,0,0,-8.1298,-8.1301,0,0,0,0,0,0,0,0,-8.1035,-8.1049,-8.1154,-8.1154,-8.1153,-8.1211,-8.1211,-8.1312,-8.1194,-8.1177,-8.1182,-8.1177,-8.125,-8.1258,-8.1283,-8.1413,-8.1417,-8.1299,-8.1303,-8.1306,-8.1308,0,0,0,0,0,0,0,-8.1029,-8.1044,-8.1208,-8.1156,-8.1155,-8.1136,-8.1144,-8.1229,-8.1237,-8.1178,-8.1173,-8.1184,-8.1248,-8.1276,-8.1285,-8.1418,-8.1298,-8.1305,-8.1309,-8.1312,-8.166,-8.1664,0,0,0,0,0,0,-8.1025,-8.104,-8.1206,-8.1211,-8.1082,-8.1144,-8.1153,-8.1196,-8.1236,-8.1237,-8.1188,-8.118,-8.1266,-8.1276,-8.1287,-8.1444,-8.1306,-8.1313,-8.1317,-8.1655,-8.1661,-8.1666,0,0,0,0,0,0,-8.102,-8.1041,-8.1202,-8.1124,-8.1143,-8.1152,-8.1202,-8.12,-8.1228,-8.1243,-8.1244,-8.1215,-8.1263,-8.1277,-8.1379,-8.1446,-8.1316,-8.1323,-8.1649,-8.1657,-8.1663,-8.176,0,0,0,0,0,0,-8.1014,-8.1039,-8.1091,-8.1126,-8.1148,-8.1295,-8.1206,-8.1205,-8.1242,-8.1233,-8.1269,-8.1271,-8.126,-8.1369,-8.1387,-8.1453,-8.1329,-8.1643,-8.1653,-8.1661,-8.1751,-8.1769,-8.1786,0,0,0,0,0,-8.1006,-8.1115,-8.1094,-8.1115,-8.1213,-8.1299,-8.1311,-8.1298,-8.1248,-8.1299,-8.1309,-8.127,-8.1437,-8.138,-8.1399,-8.1469,-8.1639,-8.165,-8.166,-8.1743,-8.1766,-8.1785,0,0,0,0,0,0,-8.1085,-8.1119,-8.1096,-8.122,-8.1257,-8.1287,-8.135,-8.1323,-8.1374,-8.1364,-8.1345,-8.1353,-8.1461,-8.1476,-8.1412,-8.16,-8.1529,-8.1545,-8.1585,-8.1607,-8.1624,-8.1616,-8.1335,0,0,0,0,0,-8.1118,-8.1186,-8.1211,-8.1317,-8.1337,-8.1341,-8.1378,-8.1365,-8.1402,-8.1417,-8.1434,-8.1471,-8.1531,-8.1571,-8.1628,-8.1755,-8.1759,-8.1813,-8.183,-8.1844,-8.1856,-8.1921,-8.1944,-8.1701,-8.1701,-8.1701,0,0,-8.1184,-8.1211,-8.1254,-8.1334,-8.1361,-8.143,-8.1355,-8.1431,-8.1481,-8.1428,-8.1525,-8.154,-8.1579,-8.1694,-8.1745,-8.1709,-8.1925,-8.1858,-8.1869,-8.1873,-8.1934,-8.1957,-8.1977,-8.1709,-8.1707,-8.1706,0,0,-8.1338,-8.1368,-8.1458,-8.1487,-8.1531,-8.1533,-8.1555,-8.1589,-8.1597,-8.1695,-8.1656,-8.1716,-8.1821,-8.1849,-8.1878,-8.2046,-8.201,-8.2065,-8.2154,-8.2217,-8.2236,-8.2253,-8.2309,-8.2329,-8.2078,-8.2078,-8.2078,0,-8.1414,-8.1518,-8.1507,-8.1586,-8.1621,-8.1579,-8.1668,-8.1698,-8.1757,-8.1781,-8.1742,-8.1872,-8.1896,-8.2015,-8.2056,-8.2082,-8.2104,-8.2058,-8.2235,-8.2252,-8.2267,-8.232,-8.2341,-8.2084,-8.2083,-8.2083,-8.2082,0,-8.1607,-8.168,-8.1747,-8.1807,-8.185,-8.1934,-8.1933,-8.1978,-8.1963,-8.1969,-8.2068,-8.2096,-8.2156,-8.2185,-8.217,-8.2302,-8.2278,-8.2238,-8.2165,-8.2296,-8.2345,-8.2366,-8.2093,-8.209,-8.2089,-8.2087,0,0,-8.1809,-8.1864,-8.1888,-8.1913,-8.1959,-8.2014,-8.2096,-8.2157,-8.2194,-8.2237,-8.2303,-8.2394,-8.2357,-8.2389,-8.2378,-8.2435,-8.2561,-8.2387,-8.2388,-8.2414,-8.2703,-8.273,-8.2753,-8.2541,-8.2545,-8.2548,-8.2699,0,-8.1962,-8.2106,-8.2099,-8.2232,-8.2297,-8.226,-8.2331,-8.2365,-8.2374,-8.2429,-8.2439,-8.2502,-8.245,-8.2469,-8.2524,-8.2534,-8.2618,-8.2524,-8.2598,-8.26,-8.2583,-8.278,-8.2808,-8.2948,-8.2718,-8.2721,-8.2724,0,-8.2159,-8.221,-8.235,-8.2385,-8.2412,-8.2476,-8.253,-8.2585,-8.2623,-8.2626,-8.2663,-8.2643,-8.2723,-8.2653,-8.2762,-8.2699,-8.2729,-8.2739,-8.2744,-8.2746,-8.2666,-8.2782,-8.2993,-8.3012,-8.2755,-8.2752,-8.275,0,-8.2287,-8.2391,-8.2487,-8.2511,-8.2556,-8.2601,-8.2621,-8.2656,-8.2692,-8.274,-8.2763,-8.282,-8.285,-8.2893,-8.2888,-8.2838,-8.2998,-8.2928,-8.2998,-8.2998,-8.3028,-8.3026,-8.3243,-8.3058,-8.3058,-8.3057,-8.3057,0,-8.2455,-8.2541,-8.2545,-8.2603,-8.2698,-8.269,-8.2783,-8.2799,-8.283,-8.2889,-8.2862,-8.2918,-8.291,-8.2966,-8.2963,-8.3052,-8.3067,-8.3068,-8.3065,-8.3068,-8.3067,-8.3083,-8.3071,-8.3063,-8.3061,-8.306,-8.3059,0,-8.2611,-8.2618,-8.272,-8.2755,-8.2765,-8.2833,-8.2862,-8.2916,-8.2924,-8.3,-8.3017,-8.3028,-8.3093,-8.3093,-8.3167,-8.3165,-8.3272,-8.3261,-8.3259,-8.3254,-8.3323,-8.3314,-8.3553,-8.3583,-8.3384,-8.3386,-8.3387,0,-8.2715,-8.2781,-8.2823,-8.2862,-8.2885,-8.2948,-8.2986,-8.2981,-8.3021,-8.307,-8.3118,-8.318,-8.3229,-8.3334,-8.3347,-8.3403,-8.339,-8.347,-8.3397,-8.3397,-8.3385,-8.3379,-8.3383,-8.3482,-8.3484,-8.3486,-8.3487,0,-8.2898,-8.2899,-8.2955,-8.3012,-8.3058,-8.3103,-8.3144,-8.3177,-8.3177,-8.3223,-8.3289,-8.3328,-8.3404,-8.3464,-8.3519,-8.3538,-8.3511,-8.3511,-8.3529,-8.3529,-8.3524,-8.3523,-8.3291,-8.3504,-8.3502,-8.3501,-8.35,-8.35,-8.3028,-8.3083,-8.3122,-8.3185,-8.3216,-8.3255,-8.3308,-8.3323,-8.3378,-8.344,-8.3434,-8.3507,-8.3543,-8.3614,-8.3638,-8.3693,-8.3665,-8.3693,-8.3699,-8.3704,-8.3709,-8.352,-8.3704,-8.3703,-8.3703,-8.3703,-8.3702,0,-8.3205,-8.3229,-8.3287,-8.3346,-8.3395,-8.3371,-8.3415,-8.3457,-8.3522,-8.3559,-8.3608,-8.3684,-8.3743,-8.3762,-8.3819,-8.386,-8.3849,-8.3875,-8.3869,-8.3873,-8.3734,-8.371,-8.3882,-8.3882,-8.3882,-8.3882,-8.3882,-8.3882,-8.3303,-8.3394,-8.3399,-8.3505,-8.3528,-8.36,-8.3627,-8.3662,-8.3691,-8.3777,-8.3827,-8.384,-8.3869,-8.3928,-8.3981,-8.3985,-8.4005,-8.4034,-8.4033,-8.3901,-8.3883,-8.3865,-8.3843,-8.404,-8.404,-8.4166,-8.4167,-8.4168]},{"header":{"parameterUnit":"m.s-1","parameterCategory":1,"la1":30.2991,"la2":30.254,"lo1":-89.0895,"lo2":-89.0444,"dx":0.0017,"dy":0.0017,"nx":28,"ny":28,"refTime":"2022-11-13T15:00:00:Z","depth":0,"parameterNumber":3,"parameterNumberName":"V-component_of_WINDS"},"data":[0,0,0,0,0,0,0,0,0,0,0,0,0,0,0,0,0,0,0,0,0,0,0,0,0,0,0,0,0,0,0,0,0,0,0,0,0,0,0,0,0,0,0,0,0,0,0,0,0,0,0,0,0,0,0,0,0,0,5.68,5.68,0,5.678,5.678,5.6779,5.6663,5.6661,5.6658,5.6655,5.6635,5.6637,5.6639,0,0,0,0,0,0,0,0,0,0,0,0,0,5.6741,5.6742,5.68,5.68,5.68,5.678,5.678,5.6779,5.6664,5.666,5.6657,5.6654,5.6634,5.6637,5.6639,0,0,0,0,0,0,0,0,0,0,0,0,0,5.6748,5.6743,5.68,5.674,5.6734,5.678,5.678,5.6779,5.6665,5.666,5.6656,5.6652,5.6634,5.6637,5.664,5.6742,0,0,5.6649,5.665,0,0,0,0,0,0,0,0,5.6748,5.675,5.6749,5.6744,5.6738,5.672,5.6751,5.6767,5.6666,5.6691,5.6655,5.665,5.6667,5.6667,5.6672,5.6742,5.6741,5.6649,5.6651,5.6653,5.6653,0,0,0,0,0,0,0,5.6747,5.6751,5.6792,5.6749,5.6742,5.6714,5.671,5.6754,5.6703,5.6688,5.668,5.6679,5.6663,5.667,5.6671,5.674,5.6649,5.6652,5.6654,5.6655,5.6893,5.6897,0,0,0,0,0,0,5.6755,5.6751,5.6793,5.6792,5.6733,5.6719,5.6715,5.673,5.6702,5.6693,5.6683,5.6674,5.6666,5.6667,5.667,5.6787,5.6653,5.6655,5.6657,5.6889,5.6894,5.6899,0,0,0,0,0,0,5.6754,5.676,5.6794,5.6769,5.6771,5.6724,5.6742,5.6732,5.6738,5.6697,5.6688,5.6699,5.6663,5.6665,5.6725,5.6785,5.6657,5.666,5.6883,5.689,5.6896,5.7024,0,0,0,0,0,0,5.6753,5.6761,5.6799,5.6771,5.6773,5.6849,5.6746,5.6734,5.6744,5.6732,5.671,5.6702,5.666,5.6721,5.6728,5.6787,5.6662,5.6878,5.6886,5.6894,5.7014,5.7034,5.7052,0,0,0,0,0,5.6751,5.6836,5.6801,5.6807,5.6819,5.6853,5.6854,5.6803,5.6749,5.6787,5.6761,5.6703,5.6778,5.6728,5.6735,5.6796,5.6874,5.6884,5.6894,5.7006,5.703,5.7051,0,0,0,0,0,0,5.6871,5.6831,5.6792,5.6869,5.6866,5.6833,5.6879,5.6831,5.6842,5.6831,5.6768,5.6764,5.6833,5.6821,5.6766,5.6894,5.6816,5.6828,5.6899,5.6922,5.694,5.6941,5.6665,0,0,0,0,0,5.6907,5.6937,5.69,5.6972,5.6972,5.6927,5.6939,5.6901,5.6894,5.6892,5.687,5.6867,5.6889,5.6905,5.6924,5.7013,5.7006,5.7058,5.7077,5.7093,5.7103,5.7149,5.7171,5.6932,5.6932,5.6932,0,0,5.698,5.6962,5.6985,5.6996,5.6988,5.7021,5.6926,5.6965,5.6988,5.6898,5.6952,5.6937,5.6929,5.7004,5.7036,5.6995,5.7168,5.7105,5.7118,5.712,5.7161,5.7184,5.7204,5.6939,5.6937,5.6936,0,0,5.713,5.712,5.7178,5.7173,5.7163,5.7132,5.7147,5.7123,5.7109,5.7163,5.7095,5.7124,5.7164,5.716,5.7164,5.7316,5.7262,5.7324,5.742,5.7466,5.7484,5.7501,5.7554,5.7573,5.7335,5.7335,5.7335,0,5.7222,5.7269,5.7215,5.7258,5.7265,5.7185,5.7244,5.7242,5.7239,5.7245,5.7201,5.725,5.7239,5.7312,5.7349,5.7355,5.7369,5.7325,5.7486,5.7502,5.7516,5.7566,5.7586,5.7343,5.7342,5.7341,5.734,0,5.7383,5.7416,5.7465,5.7464,5.7476,5.7528,5.7481,5.7501,5.7462,5.7437,5.7493,5.7478,5.7492,5.7507,5.7469,5.7575,5.755,5.7497,5.7417,5.7548,5.7593,5.7612,5.7353,5.735,5.7348,5.7346,0,0,5.7605,5.7574,5.7593,5.7591,5.7575,5.76,5.7649,5.7662,5.768,5.7682,5.772,5.7757,5.7708,5.7712,5.7674,5.7715,5.7835,5.7657,5.7655,5.7689,5.7949,5.7987,5.801,5.7801,5.7804,5.7807,5.7949,0,5.7747,5.7826,5.778,5.7866,5.7896,5.7822,5.7864,5.786,5.7838,5.7861,5.7837,5.7863,5.7798,5.78,5.7837,5.7812,5.7886,5.7802,5.7835,5.7837,5.7837,5.8034,5.8074,5.8209,5.7967,5.797,5.7972,0,5.7923,5.7932,5.8021,5.8,5.8011,5.8049,5.8058,5.8081,5.8075,5.8056,5.8063,5.8015,5.8061,5.7985,5.8047,5.7991,5.8002,5.7993,5.7997,5.7996,5.791,5.8037,5.8251,5.8271,5.8,5.7997,5.7995,0,5.8074,5.8109,5.8166,5.8168,5.8145,5.8173,5.8165,5.8155,5.8166,5.8175,5.8182,5.8196,5.8204,5.8216,5.8174,5.8122,5.8242,5.8162,5.8227,5.8229,5.8254,5.8252,5.8471,5.8265,5.8265,5.8265,5.8264,0,5.8236,5.8293,5.8234,5.8269,5.8331,5.8278,5.8342,5.8326,5.8318,5.8349,5.8287,5.8318,5.8261,5.8287,5.8255,5.8311,5.8315,5.8301,5.8291,5.8305,5.8307,5.831,5.8299,5.827,5.8269,5.8268,5.8267,0,5.8414,5.8377,5.8435,5.8409,5.8404,5.8451,5.8429,5.846,5.8436,5.8476,5.8483,5.8443,5.847,5.843,5.8453,5.8431,5.8509,5.8486,5.851,5.8503,5.857,5.8564,5.8797,5.8824,5.8603,5.8605,5.8607,0,5.8519,5.8561,5.854,5.8557,5.8552,5.858,5.8591,5.8542,5.8556,5.8553,5.8586,5.8607,5.8622,5.8668,5.8642,5.8659,5.8635,5.8715,5.8637,5.865,5.8634,5.8631,5.8635,5.8731,5.8733,5.8736,5.8737,0,5.8709,5.8689,5.8707,5.8721,5.8736,5.8744,5.8747,5.8765,5.8712,5.8732,5.8759,5.877,5.8794,5.8816,5.8826,5.8818,5.877,5.8763,5.8778,5.8792,5.8804,5.8797,5.8552,5.8757,5.8755,5.8754,5.8752,5.8752,5.8852,5.8886,5.8877,5.89,5.8898,5.8903,5.8931,5.8911,5.8932,5.8946,5.8916,5.8951,5.8944,5.8953,5.8951,5.8977,5.8942,5.8965,5.8971,5.8977,5.8986,5.8802,5.8979,5.8979,5.8978,5.8978,5.8977,0,5.9037,5.9028,5.905,5.9057,5.9076,5.9029,5.9031,5.9049,5.908,5.9078,5.9094,5.9125,5.9147,5.9123,5.9141,5.9166,5.9144,5.9172,5.9169,5.9168,5.9018,5.9001,5.919,5.919,5.919,5.919,5.919,5.9189,5.9135,5.919,5.917,5.9223,5.9214,5.9246,5.9251,5.9256,5.9254,5.9291,5.9309,5.9294,5.9283,5.93,5.9318,5.931,5.9319,5.9355,5.9339,5.9199,5.9178,5.9158,5.9143,5.9357,5.9358,5.9486,5.9488,5.9489]}]]